McCook, NE

8:01 AM CDT on April 25, 2018 (GMT -0500)
McCook Municipal

Weather History for KMCK - September, 2013

Change the Weather History Date:

Wednesday, September 4, 2013

  Actual Average Record
Temperature  
Mean Temperature 82 °F 69 °F  
Max Temperature 102 °F 84 °F 102 °F (1960)
Min Temperature 62 °F 55 °F 36 °F (1974)
Cooling Degree Days 17    
Growing Degree Days 32 (Base 50)    
Moisture  
Dew Point 54 °F    
Average Humidity 41    
Maximum Humidity 73    
Minimum Humidity 19    
Precipitation  
Precipitation 0.00 in 0.05 in 1.09 in (1951)
Month to date precipitation 0.00 0.21  
Year to date precipitation 9.17 17.92  
Sea Level Pressure  
Sea Level Pressure 29.98 in    
Wind  
Wind Speed 9 mph (SE)    
Max Wind Speed 17 mph    
Max Gust Speed 28 mph    
Visibility 10 miles    
Events      
T = Trace of Precipitation, MM = Missing Value Source: NWS Daily Summary

Daily Weather History Graph

Daily Weather History Graph

Search for Another Location

Airport or City:

Astronomy

Sep. 04, 2013 Rise Set
Actual Time 7:13 AM CDT 8:08 PM CDT
Civil Twilight 6:45 AM CDT 8:36 PM CDT
Nautical Twilight 6:12 AM CDT 9:09 PM CDT
Astronomical Twilight 5:38 AM CDT 9:43 PM CDT
Moon 6:26 AM CDT (9/4) 7:29 PM CDT (9/4)
Length of Visible Light 13h 51m
Length of Day
12h 55m
Waning Crescent, 1% of the Moon is Illuminated
Sep 4
Waning Crescent
Sep 5
New
Sep 12
First Quarter
Sep 19
Full
Sep 26
Last Quarter

Hourly Weather History & Observations

Time (CDT) Temp. Heat Index Dew Point Humidity Pressure Visibility Wind Dir Wind Speed Gust Speed Precip Events Conditions
12:53 AM 75.0 °F - 53.1 °F 46% 29.96 in 10.0 mi SSE 9.2 mph - N/A   Clear
1:53 AM 72.0 °F - 54.0 °F 53% 29.97 in 10.0 mi SE 6.9 mph - N/A   Clear
2:53 AM 71.1 °F - 54.0 °F 55% 29.97 in 10.0 mi SSE 3.5 mph - N/A   Clear
3:53 AM 70.0 °F - 54.0 °F 57% 29.97 in 10.0 mi East 10.4 mph - N/A   Clear
4:53 AM 66.0 °F - 55.0 °F 68% 29.98 in 10.0 mi East 5.8 mph - N/A   Clear
5:53 AM 64.0 °F - 55.0 °F 73% 29.99 in 10.0 mi East 3.5 mph - N/A   Clear
6:53 AM 64.0 °F - 54.0 °F 70% 30.00 in 10.0 mi East 3.5 mph - N/A   Clear
7:53 AM 64.9 °F - 55.0 °F 70% 30.01 in 10.0 mi East 4.6 mph - N/A   Clear
8:53 AM 69.1 °F - 55.0 °F 61% 30.02 in 10.0 mi ESE 4.6 mph - N/A   Clear
9:53 AM 79.0 °F - 54.0 °F 42% 30.02 in 10.0 mi South 13.8 mph - N/A   Clear
10:53 AM 84.0 °F 82.6 °F 54.0 °F 35% 30.02 in 10.0 mi South 9.2 mph - N/A   Clear
11:53 AM 90.0 °F 87.7 °F 54.0 °F 29% 30.03 in 10.0 mi East 5.8 mph - N/A   Clear
12:53 PM 91.0 °F 88.5 °F 53.1 °F 27% 29.99 in 10.0 mi SE 15.0 mph - N/A   Partly Cloudy
1:53 PM 97.0 °F 94.6 °F 53.1 °F 23% 29.99 in 10.0 mi SE 12.7 mph 23.0 mph N/A   Clear
2:53 PM 99.0 °F - 52.0 °F 21% 29.98 in 10.0 mi South 13.8 mph 25.3 mph N/A   Clear
3:53 PM 100.0 °F - 52.0 °F 20% 29.95 in 10.0 mi SSE 17.3 mph 27.6 mph N/A   Clear
4:53 PM 100.9 °F - 52.0 °F 19% 29.94 in 10.0 mi South 11.5 mph 20.7 mph N/A   Clear
5:53 PM 100.0 °F - 51.1 °F 19% 29.94 in 10.0 mi South 16.1 mph 23.0 mph N/A   Clear
6:53 PM 98.1 °F - 51.1 °F 20% 29.94 in 10.0 mi South 12.7 mph - N/A   Clear
7:53 PM 93.0 °F - 51.1 °F 24% 29.95 in 10.0 mi SSE 9.2 mph - N/A   Clear
8:53 PM 88.0 °F - 52.0 °F 29% 29.98 in 10.0 mi SSE 9.2 mph - N/A   Clear
9:53 PM 84.9 °F 83.6 °F 55.0 °F 36% 29.99 in 10.0 mi SSE 11.5 mph - N/A   Clear
10:53 PM 84.0 °F 83.0 °F 55.9 °F 38% 29.99 in 10.0 mi SSE 16.1 mph - N/A   Clear
11:53 PM 81.0 °F 80.8 °F 55.9 °F 42% 30.01 in 10.0 mi South 8.1 mph - N/A   Clear